Weather History for KFAM - July, 2013

Change the Weather History Date:

Saturday, July 20, 2013

  Actual Average (KCGI) Record (KCGI)
Temperature  
Mean Temperature 80 °F 79 °F  
Max Temperature 91 °F 89 °F 103 °F (1983)
Min Temperature 69 °F 68 °F 58 °F (2009)
Degree Days  
Heating Degree Days 0 0  
Month to date heating degree days 0  
Since 1 June heating degree days 4  
Since 1 July heating degree days 0  
Cooling Degree Days 15 14  
Month to date cooling degree days 277  
Year to date cooling degree days 741  
Since 1 June cooling degree days 589  
Growing Degree Days 30 (Base 50)    
Moisture  
Dew Point 68 °F    
Average Humidity 79    
Maximum Humidity 94    
Minimum Humidity 49    
Precipitation  
Precipitation 0.45 in 0.10 in 1.40 in (1975)
Month to date precipitation 2.17  
Year to date precipitation 26.84  
Sea Level Pressure  
Sea Level Pressure 29.95 in    
Wind  
Wind Speed 5 mph (SSW)    
Max Wind Speed 14 mph    
Max Gust Speed 30 mph    
Visibility 10 miles    
Events Thunderstorm    
T = Trace of Precipitation, MM = Missing Value Source: NWS Daily Summary

Daily Weather History Graph

Daily Weather History Graph

Search for Another Location

Airport or City:

Trip Planner

Search our weather history database for the weather conditions in past years. The results will help you decide how hot, cold, wet, or windy it might be!

Date:

Astronomy

Jul. 20, 2013 Rise Set
Actual Time 5:55 AM CDT 8:20 PM CDT
Civil Twilight 5:25 AM CDT 8:50 PM CDT
Nautical Twilight 4:48 AM CDT 9:27 PM CDT
Astronomical Twilight 4:07 AM CDT 10:07 PM CDT
Moon 6:23 PM CDT (7/20) 3:35 AM CDT (7/20)
Length of Visible Light 15h 24m
Length of Day
14h 24m
Waxing Gibbous, 94% of the Moon is Illuminated
Jul 20
Waxing Gibbous
Jul 22
Full
Jul 29
Last Quarter
Aug 6
New
Aug 14
First Quarter

Hourly Weather History & Observations

Time (CDT) Temp. Heat Index Dew Point Humidity Pressure Visibility Wind Dir Wind Speed Gust Speed Precip Events Conditions
12:15 AM 75.2 °F - 66.2 °F 73% 29.98 in 10.0 mi Calm Calm - N/A   Clear
12:35 AM 75.2 °F - 66.2 °F 73% 29.99 in 10.0 mi Calm Calm - N/A   Clear
12:55 AM 75.2 °F - 68.0 °F 78% 29.98 in 10.0 mi SSW 5.8 mph - N/A   Clear
1:15 AM 75.2 °F - 68.0 °F 78% 29.98 in 10.0 mi South 6.9 mph - N/A   Clear
1:35 AM 73.4 °F - 68.0 °F 83% 29.97 in 10.0 mi SW 4.6 mph - N/A   Clear
1:55 AM 73.4 °F - 68.0 °F 83% 29.97 in 10.0 mi SSW 5.8 mph - N/A   Clear
2:15 AM 73.4 °F - 68.0 °F 83% 29.96 in 10.0 mi SSW 5.8 mph - N/A   Clear
2:35 AM 73.4 °F - 68.0 °F 83% 29.96 in 10.0 mi SSW 4.6 mph - N/A   Clear
2:55 AM 73.4 °F - 68.0 °F 83% 29.96 in 10.0 mi SSW 3.5 mph - N/A   Clear
3:15 AM 73.4 °F - 68.0 °F 83% 29.96 in 10.0 mi SSW 4.6 mph - N/A   Clear
3:35 AM 73.4 °F - 68.0 °F 83% 29.95 in 10.0 mi SW 5.8 mph - N/A   Clear
3:55 AM 73.4 °F - 68.0 °F 83% 29.95 in 10.0 mi SSW 4.6 mph - N/A   Clear
4:15 AM 71.6 °F - 68.0 °F 88% 29.95 in 10.0 mi SSW 5.8 mph - N/A   Clear
4:35 AM 73.4 °F - 68.0 °F 83% 29.96 in 10.0 mi SW 5.8 mph - N/A   Clear
4:55 AM 71.6 °F - 68.0 °F 88% 29.95 in 10.0 mi SSW 5.8 mph - N/A   Clear
5:15 AM 71.6 °F - 68.0 °F 88% 29.95 in 10.0 mi South 5.8 mph - N/A   Clear
5:35 AM 71.6 °F - 68.0 °F 88% 29.95 in 10.0 mi South 5.8 mph - N/A   Clear
5:55 AM 71.6 °F - 68.0 °F 88% 29.96 in 10.0 mi South 3.5 mph - N/A   Clear
6:15 AM 71.6 °F - 68.0 °F 88% 29.96 in 10.0 mi SSW 3.5 mph - N/A   Clear
6:35 AM 71.6 °F - 68.0 °F 88% 29.96 in 10.0 mi SSW 3.5 mph - N/A   Clear
6:55 AM 71.6 °F - 69.8 °F 94% 29.95 in 10.0 mi South 4.6 mph - N/A   Clear
7:15 AM 73.4 °F - 69.8 °F 88% 29.96 in 10.0 mi South 5.8 mph - N/A   Clear
7:35 AM 73.4 °F - 69.8 °F 88% 29.95 in 10.0 mi South 6.9 mph - N/A   Clear
7:55 AM 75.2 °F - 69.8 °F 83% 29.95 in 10.0 mi South 6.9 mph - N/A   Clear
8:15 AM 77.0 °F - 69.8 °F 78% 29.95 in 10.0 mi South 6.9 mph - N/A   Clear
8:35 AM 78.8 °F - 69.8 °F 74% 29.96 in 10.0 mi SSW 8.1 mph - N/A   Clear
8:55 AM 78.8 °F - 69.8 °F 74% 29.95 in 10.0 mi SSW 8.1 mph - N/A   Clear
9:15 AM 80.6 °F 83.9 °F 69.8 °F 70% 29.95 in 10.0 mi SW 6.9 mph - N/A   Clear
9:35 AM 82.4 °F 86.3 °F 69.8 °F 66% 29.95 in 10.0 mi WSW 8.1 mph - N/A   Clear
9:55 AM 84.2 °F 88.4 °F 69.8 °F 62% 29.95 in 10.0 mi SSW 4.6 mph - N/A   Clear
10:15 AM 84.2 °F 88.4 °F 69.8 °F 62% 29.95 in 10.0 mi SSW 8.1 mph - N/A   Clear
10:35 AM 86.0 °F 91.8 °F 71.6 °F 62% 29.95 in 10.0 mi South 6.9 mph - N/A   Clear
10:55 AM 87.8 °F 93.8 °F 71.6 °F 58% 29.94 in 10.0 mi WSW 3.5 mph - N/A   Clear
11:15 AM 87.8 °F 93.8 °F 71.6 °F 58% 29.94 in 10.0 mi SSW 6.9 mph - N/A   Clear
11:35 AM 89.6 °F 96.2 °F 71.6 °F 55% 29.94 in 10.0 mi South 3.5 mph - N/A   Clear
11:55 AM 89.6 °F 96.2 °F 71.6 °F 55% 29.94 in 10.0 mi South 6.9 mph - N/A   Clear
12:15 PM 91.4 °F 98.4 °F 71.6 °F 52% 29.93 in 10.0 mi West 6.9 mph - N/A   Partly Cloudy
12:35 PM 91.4 °F 96.8 °F 69.8 °F 49% 29.93 in 10.0 mi South 8.1 mph - N/A   Partly Cloudy
12:55 PM 91.4 °F 96.8 °F 69.8 °F 49% 29.92 in 10.0 mi Calm Calm - N/A   Clear
1:15 PM 91.4 °F 98.4 °F 71.6 °F 52% 29.92 in 10.0 mi SSW 6.9 mph - N/A Thunderstorm Thunderstorm
1:35 PM 91.4 °F 98.4 °F 71.6 °F 52% 29.92 in 10.0 mi SSW 9.2 mph - N/A Thunderstorm Scattered Clouds
1:55 PM 91.4 °F 96.8 °F 69.8 °F 49% 29.92 in 10.0 mi SSE 13.8 mph - N/A Thunderstorm Mostly Cloudy
2:15 PM 84.2 °F 87.3 °F 68.0 °F 58% 29.90 in 10.0 mi South 11.5 mph - N/A Thunderstorm Thunderstorm
2:35 PM 78.8 °F - 69.8 °F 74% 29.89 in 3.0 mi Calm Calm - 0.14 in Thunderstorm Thunderstorm
2:55 PM 77.0 °F - 66.2 °F 69% 29.91 in 9.0 mi North 13.8 mph 29.9 mph 0.17 in Thunderstorm Thunderstorm
3:15 PM 75.2 °F - 68.0 °F 78% 29.91 in 10.0 mi ENE 6.9 mph - 0.06 in Thunderstorm Thunderstorm
3:35 PM 73.4 °F - 68.0 °F 83% 29.89 in 10.0 mi NNW 5.8 mph - 0.09 in Thunderstorm Thunderstorm
3:55 PM 73.4 °F - 66.2 °F 78% 29.91 in 10.0 mi WNW 8.1 mph - 0.10 in Thunderstorm Thunderstorm
4:15 PM 71.6 °F - 66.2 °F 83% 29.96 in 10.0 mi NNW 12.7 mph 16.1 mph N/A Thunderstorm Thunderstorm
4:35 PM 69.8 °F - 66.2 °F 88% 29.94 in 10.0 mi WNW 8.1 mph - 0.04 in Thunderstorm Thunderstorm
4:55 PM 69.8 °F - 66.2 °F 88% 29.94 in 10.0 mi NW 8.1 mph - 0.07 in   Overcast
5:15 PM 71.6 °F - 66.2 °F 83% 29.91 in 10.0 mi NE 3.5 mph - N/A Thunderstorm Partly Cloudy
5:35 PM 69.8 °F - 66.2 °F 88% 29.91 in 10.0 mi SE 4.6 mph - 0.01 in Thunderstorm Thunderstorm
5:55 PM 69.8 °F - 66.2 °F 88% 29.91 in 10.0 mi South 5.8 mph - 0.03 in Thunderstorm Thunderstorm
6:15 PM 69.8 °F - 66.2 °F 88% 29.91 in 10.0 mi South 5.8 mph - 0.03 in   Overcast
6:35 PM 69.8 °F - 66.2 °F 88% 29.92 in 10.0 mi SSW 3.5 mph - 0.06 in   Overcast
6:55 PM 69.8 °F - 66.2 °F 88% 29.93 in 10.0 mi West 3.5 mph - 0.07 in   Overcast
7:15 PM 69.8 °F - 66.2 °F 88% 29.94 in 10.0 mi Calm Calm - 0.01 in   Scattered Clouds
7:35 PM 71.6 °F - 68.0 °F 88% 29.95 in 10.0 mi Calm Calm - 0.01 in   Clear
7:55 PM 71.6 °F - 68.0 °F 88% 29.95 in 10.0 mi Calm Calm - 0.01 in   Clear
8:15 PM 69.8 °F - 68.0 °F 94% 29.97 in 10.0 mi ESE 3.5 mph - N/A   Mostly Cloudy
8:35 PM 69.8 °F - 66.2 °F 88% 29.99 in 10.0 mi ENE 6.9 mph - N/A   Mostly Cloudy
8:55 PM 71.6 °F - 68.0 °F 88% 29.98 in 10.0 mi ENE 5.8 mph - N/A   Partly Cloudy
9:15 PM 69.8 °F - 68.0 °F 94% 29.97 in 10.0 mi East 5.8 mph - N/A   Partly Cloudy
9:35 PM 69.8 °F - 68.0 °F 94% 29.97 in 10.0 mi SE 4.6 mph - N/A   Partly Cloudy
9:55 PM 69.8 °F - 68.0 °F 94% 29.96 in 10.0 mi SSE 5.8 mph - N/A   Scattered Clouds
10:15 PM 69.8 °F - 68.0 °F 94% 29.97 in 10.0 mi SSW 5.8 mph - N/A   Overcast
10:35 PM 69.8 °F - 68.0 °F 94% 29.97 in 10.0 mi Calm Calm - N/A   Scattered Clouds
10:55 PM 69.8 °F - 68.0 °F 94% 29.96 in 10.0 mi South 5.8 mph - N/A   Clear
11:15 PM 69.8 °F - 68.0 °F 94% 29.96 in 10.0 mi SSW 4.6 mph - N/A   Partly Cloudy
11:35 PM 69.8 °F - 68.0 °F 94% 29.96 in 10.0 mi South 4.6 mph - N/A   Mostly Cloudy
11:55 PM 69.8 °F - 66.2 °F 88% 29.96 in 10.0 mi SW 3.5 mph - N/A   Scattered Clouds